Regional Weather Roundup
Issued by NWS Sterling, VA

Home | Current Version | Previous Version | Graphics & Text | Print | Product List | Glossary On
Versions: 1 2 3 4 5 6 7 8 9 10 11 12 13 14 15 16 17 18 19 20 21 22 23 24 25 26 27 28 29 30 31 32 33 34 35 36 37 38 39 40 41 42 43 44 45 46 47 48 49 50
000
ASUS41 KLWX 220210
RWRLWX

REGIONAL WEATHER ROUNDUP
NATIONAL WEATHER SERVICE BALTIMORE MD/WASHINGTON DC
1000 PM EDT THU AUG 21 2014

Note: "FAIR" indicates few or no clouds below 12,000 feet
with no significant weather and/or obstructions to visibility.
 TC=TEMPERATURE CELSIUS

 * =Non NWS site. Station does not report precipitation (e.g. rain,
    snow, etc.), thunder, or fog.

DCZ001-MDZ009-015-VAZ040>042-051-053>054-220300-
WASHINGTON METRO
  /KDAA//-FT BELVOIR

CITY           SKY/WX    TMP DP  RH WIND       PRES   REMARKS
WASHINGTON NAT CLOUDY    78  71  79 SW5       29.99S
DULLES         CLOUDY    72  71  97 CALM      30.01R
ANDREWS AFB    CLOUDY    75  72  90 SW5       30.00R
QUANTICO       CLOUDY    79  74  84 NE7       30.00R
COLLEGE PARK*  CLOUDY    75  73  94 CALM      29.99S
LEESBURG*      CLOUDY    72  72 100 W3        30.02R
MANASSAS*      CLOUDY    75  75 100 CALM      30.00R
GAITHERSBURG*  CLOUDY    72  70  94 CALM      30.05R

$$

MDZ006>007-011-014-220300-
BALTIMORE METRO

CITY           SKY/WX    TMP DP  RH WIND       PRES   REMARKS
BWI AIRPORT    CLOUDY    77  69  76 SW5       29.99R
MD SCIENCE CTR   N/A     80  68  66 MISG      29.99R
ANNAPOLIS      CLOUDY    79  70  74 CALM      29.97S
FORT MEADE*    CLOUDY    72  70  94 CALM      30.01S

$$

MDZ012-015-019>023-220300-
MARYLAND EASTERN SHORE

CITY           SKY/WX    TMP DP  RH WIND       PRES   REMARKS
OCEAN CITY     CLOUDY    77  73  87 VRB5      30.02R
SALISBURY      CLOUDY    77  72  84 CALM      30.02R
BAY BRIDGE AP*   N/A     79  72  78 S5        29.98S
CAMBRIDGE*     CLOUDY    79  73  83 SE6       29.99S

$$

MDZ017>025-220300-
SOUTHERN MARYLAND

CITY           SKY/WX    TMP DP  RH WIND       PRES   REMARKS
PATUXENT RIVER LGT RAIN  77  71  82 SW5       29.99S
ST INIGOES     CLOUDY    78  69  73 S3        29.99S
LEONARDTOWN*   CLOUDY    77  70  78 CALM      30.01S

$$

MDZ003>005-220300-
NORTH CENTRAL MARYLAND

CITY           SKY/WX    TMP DP  RH WIND       PRES   REMARKS
FREDERICK*     CLOUDY    72  72 100 CALM      30.04R
HAGERSTOWN APT CLOUDY    69  66  90 NW6       30.02R
WESTMINSTER*   CLOUDY    73  70  88 CALM      30.01F

$$

MDZ501>502-220300-
WESTERN MARYLAND

CITY           SKY/WX    TMP DP  RH WIND       PRES   REMARKS
OAKLAND*       PTCLDY    63 N/A N/A SW5       30.14R
CUMBERLAND*    PTCLDY    72  66  83 SE3       30.08R

$$

VAZ025>031-220300-
SHENANDOAH VALLEY

CITY           SKY/WX    TMP DP  RH WIND       PRES   REMARKS
WINCHESTER*    MOCLDY    77  64  65 SW3       30.03R
STAUNTON*      LGT RAIN  73  67  81 S5        30.09R

$$

WVZ021-048>050-054>055-220300-
EASTERN WEST VIRGINIA PANHANDLE

CITY           SKY/WX    TMP DP  RH WIND       PRES   REMARKS
MARTINSBURG    CLOUDY    76  65  68 W7        30.02R
PETERSBURG*    NOT AVBL

$$

VAZ036>039-050-220300-
CENTRAL FOOTHILLS

CITY           SKY/WX    TMP DP  RH WIND       PRES   REMARKS
CHARLOTTESVILL CLOUDY    75  70  84 SW7       30.03R
ORANGE*        CLOUDY    75  72  88 S5        30.03R

$$

VAZ055>057-220300-
NORTH AND CENTRAL PIEDMONT

CITY           SKY/WX    TMP DP  RH WIND       PRES   REMARKS
FREDERICKSBRG* CLOUDY    78  76  96 CALM      29.99R
STAFFORD*      CLOUDY    76  76 100 CALM      30.04R FOG

$$

NCZ024-NYZ072-PAZ021-071-VAZ022-071-220300-
OTHER REGIONAL OBSERVATIONS

CITY           SKY/WX    TMP DP  RH WIND       PRES   REMARKS
NEW YORK CITY  CLOUDY    73  62  68 VRB3      30.06R
PHILADELPHIA   CLOUDY    74  67  78 S6        30.01S
PITTSBURGH     MOCLDY    71  67  87 SW7       30.04R
ROANOKE        MOCLDY    72  67  84 CALM      30.11R
RICHMOND       LGT RAIN  83  72  69 SW5       30.01R
RALEIGH        CLOUDY    78  71  79 CALM      30.06S

$$

ANZ530>537-220300-
MARINE OBSERVATIONS

STATION/POSITION TIME  TEMP    WIND        PRES
                       AIR SEA DIR/SP/G
                 (UTC) (F)     (DEG/KT/KT) (MB)
THOMAS PT LIGHT  0200   79 79  220/  6/  7 1015.7R
BALT KEY BRIDGE  0200   79     290/  5/  6 1015.1R
COVE POINT       0200   78     210/  6/  7 1015.3F
LEWISETTA        0200   76 81  200/  6/  7 1015.3S
SOLOMONS ISLAND  0200      81                N/A
PINEY POINT      0200          200/  8/  9   N/A

$$



USA.gov is the U.S. government's official web portal to all federal, state and local government web resources and services.